Regional Weather Roundup
Issued by NWS

Home | Current Version | Previous Version | Graphics & Text | Print | Product List | Glossary On
Versions: 1 2 3 4 5 6 7 8 9 10 11 12 13 14 15 16 17 18 19 20 21 22 23 24 25 26 27 28 29 30 31 32 33 34 35 36 37 38 39 40 41 42 43 44 45 46 47 48 49 50
000
ASUS45 KPSR 292210
RWRAZ

ARIZONA HOURLY REGIONAL WEATHER ROUNDUP
NATIONAL WEATHER SERVICE PHOENIX AZ
300 PM MST SAT AUG 29 2015

NOTE: FAIR INDICATES FEW OR NO CLOUDS BELOW 12,000 FEET WITH NO
SIGNIFICANT WEATHER AND/OR OBSTRUCTIONS TO VISIBILITY.

AZZ001>003-036-292300-
NORTHWEST ARIZONA

CITY           SKY/WX    TMP DP  RH WIND       PRES   REMARKS
BULLHEAD CITY  SUNNY    111  50  13 SW15      29.73F HX 108
KINGMAN        PTSUNNY   99  48  17 S13G20    29.99F
$$

AZZ004>008-015-016-018-292300-
NORTH CENTRAL ARIZONA

CITY           SKY/WX    TMP DP  RH WIND       PRES   REMARKS
GRAND CANYON   MOSUNNY   83  40  21 NE3       30.27F
WILLIAMS       MOSUNNY   82  46  28 W20G25    30.33F
PRESCOTT       CLOUDY    76  57  51 SW6       30.16F
FLAGSTAFF      PTSUNNY   81  42  25 S12       30.31F
PAYSON         MOSUNNY   90  45  20 SW8       30.16F
PAGE           SUNNY     98  37  12 N8        30.05F
$$

AZZ009>014-017-292300-
NORTHEAST ARIZONA

CITY           SKY/WX    TMP DP  RH WIND       PRES   REMARKS
WINSLOW        SUNNY     95  46  18 SW18G26   30.12F
SAINT JOHNS    PTSUNNY   85  46  25 S22G28    30.20F
WINDOW ROCK    LGT RAIN  85  38  18 NE6       30.27F
SHOW LOW       PTSUNNY   82  43  24 SE9G18    30.27F
$$

AZZ023-292300-
GREATER PHOENIX AREA

CITY           SKY/WX    TMP DP  RH WIND       PRES   REMARKS
PHOENIX        MOSUNNY  109  54  16 VRB5      29.77F HX 107
BUCKEYE          N/A    108  55  18 S3        29.77F HX 106
GLENDALE       MOSUNNY  109  54  16 S6        29.79F HX 108
LUKE AFB       SUNNY    107  55  17 VRB2      29.76F HX 106
DEER VALLEY    SUNNY    107  55  18 W12       29.80F HX 106
SCOTTSDALE     SUNNY    107  51  15 VRB5      29.82F HX 104
MESA-GATEWAY   MOSUNNY  106  55  18 N9        29.83F HX 105
CHANDLER       PTSUNNY  106  54  17 SW8       29.80F HX 104
$$

AZZ027-028-292300-
SOUTHWEST MARICOPA COUNTY AND PINAL COUNTY

CITY           SKY/WX    TMP DP  RH WIND       PRES   REMARKS
CASA GRANDE    SUNNY    108  55  18 CALM      29.81F HX 106
GILA BEND      FAIR     107  57  19 NW7G22    29.76F HX 107
$$

AZZ503-504-507>509-292300-
SOUTHEAST ARIZONA

CITY           SKY/WX    TMP DP  RH WIND       PRES   REMARKS
TUCSON         MOSUNNY  103  51  17 VRB5      29.92F HX 100
DAVIS-MONTHAN  MOSUNNY  103  53  18 N6        29.90F HX 100
RYAN FIELD     SUNNY    102  54  19 W10       29.90F HX 100
NOGALES        CLOUDY    88  57  34 W7        30.05F
SIERRA VISTA   PTSUNNY   92  50  24 E10       30.11F
DOUGLAS        TSTM      71  60  68 SE13      30.08F
SAFFORD        MOSUNNY   99  53  21 S8        29.95F
$$

AZZ020-021-025-026-031-292300-
SOUTHWEST ARIZONA

CITY           SKY/WX    TMP DP  RH WIND       PRES   REMARKS
YUMA           PTSUNNY  112  60  18 SW14      29.73F HX 113
$$

CAZ031-033-041-043-047-048-061-292300-
SOUTHERN CALIFORNIA

CITY           SKY/WX    TMP DP  RH WIND       PRES   REMARKS
DOWNTOWN L.A.  SUNNY     91  61  36 W8        29.85F
L.A. AIRPORT   MOSUNNY   81  67  62 W14       29.87F
SAN DIEGO      MOSUNNY   85  67  54 NW7       29.88F
BURBANK        SUNNY     97  56  25 S10       29.86F
ONTARIO        MOSUNNY  101  53  20 SW14      29.86F
RIVERSIDE      SUNNY    101  49  17 W13G18    29.86F
PALM SPRINGS   SUNNY    114  46  10 NW14G23   29.75F HX 109
EL CENTRO NAS  MOSUNNY  113  50  12 S10       29.71F HX 110
IMPERIAL       MOSUNNY  112  51  13 S8        29.69F HX 109
BLYTHE         MOSUNNY  110  55  16 S12G18    29.72F HX 109
NEEDLES        MOSUNNY  113  47  11 SW14G26   29.74F HX 108
$$

NVZ020-UTZ003-292300-
SOUTHERN NEVADA-UTAH

CITY           SKY/WX    TMP DP  RH WIND       PRES   REMARKS
LAS VEGAS      MOSUNNY  107  45  12 SW15G25   29.80F HX 102
SALT LAKE CITY CLOUDY    95  38  13 SE17G24   29.96F
$$

NMZ009-TXZ055-292300-
NEW MEXICO-WEST TEXAS

CITY           SKY/WX    TMP DP  RH WIND       PRES   REMARKS
ALBUQUERQUE    PTSUNNY   82  47  29 E20       30.21S
EL PASO        MOSUNNY   92  52  25 VRB7      30.06F
$$


........................KEY........................
SKY/WX - SKY CONDITION/WEATHER
TMP    - TEMPERATURE IN FAHRENHEIT
DP     - DEW POINT IN FAHRENHEIT
RH     - RELATIVE HUMIDITY IN PERCENT
WIND   - DIRECTION AND SPEED IN MILES PER HOUR (MPH)
VRB    - VARIABLE WIND DIRECTION
PRES   - MEAN SEA LEVEL PRESSURE IN INCHES OF MERCURY
         F - FALLING PRESSURE   R - RISING PRESSURE
         S - STEADY PRESSURE
VSB    - VISIBILITY IN MILES
HX     - HEAT INDEX IN FAHRENHEIT
WCI    - WIND CHILL INDEX IN FAHRENHEIT
TC     - TEMPERATURE IN CELSIUS WHICH IS ALSO KNOWN AS
         TEMPERATURE IN CENTIGRADE
AFB    - AIR FORCE BASE
         LUKE AFB IS LUKE AIR FORCE BASE
         DAVIS-MONTHAN IS DAVIS-MONTHAN AIR FORCE BASE
NAS    - NAVAL AIR STATION
         EL CENTRO NAS IS EL CENTRO NAVAL AIR STATION
N/A    - NOT AVAILABLE



USA.gov is the U.S. government's official web portal to all federal, state and local government web resources and services.